Location: ??
(35.5138°N, 139.6953°E)
Time: 07:56:50
(UTC+00:00)

Okean 1 Rocket - Pass Details

Date: 07 June 2020
Orbit: 606 x 635 km, 82.5° (Epoch: 05 July)

Event Time Altitude Azimuth Distance (km) Brightness Sun altitude
Rises 10:56:27 0° 1° (N) 2,913 7.1 -11.2°
Reaches altitude 10° 10:58:49 10° 9° (N) 1,998 6.1 -11.6°
Maximum altitude 11:02:58 40° 79° (E) 923 3.6 -12.3°
Enters shadow 11:05:43 19° 140° (SE) 1,483 4.4 -12.7°
